STARLINK-1680, 46558

Orbit data source: Space-Track

STARLINK-1680, 46558 is a payload satellite owned by SpaceX/Seattle (US) in LEO that was launched on Tue, 06 Oct 2020 UTC via an FALCON 9 launch vehicle from the Air Force Eastern Test Range (AFETR). Payload-class satellites include a variety of spacecraft equipped with specific instruments for various scientific and technological missions. These include communications satellites like Starlink; space stations such as the ISS; scientific satellites like the Hubble; Earth observation satellites from companies like Planet Labs, Umbra, and HawkEye 360; GPS; miniature CubeSats for education and research; and military/defense satellites.

Not visible in the next 10 days
Identifier
46558, 2020-070AC
Orbit
LEO
Country
Flag of USUS
Related business
Manufacturer
SpaceX/Seattle
Mission
Partially operational Commercial Communications
Bus & Motor
STARLINK, Unknown motor
Mass
260 kg wet, ~248 kg dry
Launch date (UTC)
2020-10-06 (6 years ago)
Launch vehicle
FALCON 9
Launch site
Air Force Eastern Test Range (AFETR)
Object type
Payload
Rocket body
Debris
Shape & HBR
Box + 1 Pan, 10.1 m
Radar Cross Section
13.562 m², Large (>1 m²)

Expand to show TLE details & history
Last TLE update: 10 hours ago

TLE from 10 hours ago
0 STARLINK-1680
1 46558U 20070AC  26124.20786855  .01596916  11769-4  95770-3 0  9999
2 46558  53.0232 186.7018 0010078 352.6230   7.4657 16.17592826309258
Epoch: 2026-05-04T04:59Z
TLE epoch observation values (Epoch: 2026-05-04T04:59:19.842Z)
Latitude
-0.00001°
Longitude
-110.23126°
Altitude
220.415 km
Speed
7.779 km/s
True Right ascension
12h 26m 48s
True Declination
0° 00' 00"
Sunlit
Object was in full shadow at epoch
Visualization orbit readout
Latitude
Unknown
Longitude
Unknown
Altitude
Unknown
Speed
Unknown
Apparent Right ascension
Unknown
Apparent Declination
Unknown
Sunlit
N/A
Visualization observer readout
Local Sidereal Time
23:16:35
Azimuth
Unknown
Elevation
Unknown
Doppler factor
Unknown
Orbital elements
Apogee altitude
233.04 km
Perigee altitude
219.728 km
Semi-major axis
6,604.521 km
Eccentricity
0.00101
Inclination
53.0232°
RAAN
186.7018°
Arg. of periapsis
352.623°
True anomaly
7.48072°
Mean anomaly
7.4657°
Eccentric anomaly
7.47321°
Mean motion
4.04372 °/min
Orbital period
89.03 mins
BSTAR
0.0009577
Loading maneuver chart data...
Computing Atmospheric mass density...
Loading historical data...
Loading historical data...
Loading historical data...
Loading historical data...
Loading historical data...
Loading historical data...
Loading historical data...

Documentation

Showing up to 5 results
|